Home   Weather   Royan   Past weeks

Flag for France Past Weather in Royan, Poitou-Charentes, France — Yesterday and Last 2 Weeks

Now
25 °F

Clear.


Feels Like: 14 °F
Forecast: 25 / 37 °F
Wind: 12 mph from Northeast

Location: Cognac Airport

Current Time: Jan 18, 2017 at 9:25:23 am

Latest Report: Jan 18, 2017 at 8:30 am


Visibility: 10 mi

Pressure: 30.39 "Hg

Humidity: 80%

Dew Point: 19 °F

Location of RoyanLocation

Past Weather in Royan — Graph

°F

Royan Temperature Yesterday

Maximum temperature yesterday: 39 °F (at 3:30 pm)
Minimum temperature yesterday: 28 °F (at 6:00 am)
Average temperature yesterday: 33 °F

High & Low Weather Summary for the Past Weeks

 TemperatureHumidityPressure
High54 °F (Jan 11, 1:30 pm)100% (Jan 4, 5:30 am)30.63 "Hg (Jan 4, 5:30 am)
Low25 °F (Jan 4, 4:30 am)25% (Jan 7, 4:00 pm)29.80 "Hg (Jan 12, 5:30 pm)
Average40 °F81%30.32 "Hg
* Reported Jan 3 8:00 am — Jan 18 8:00 am, Royan, Weather by CustomWeather, © 2017

Note: Actual official high and low records may vary slightly from our data, if they occured in-between our weather recording intervals... More about our weather records

Advertising

Royan Weather History for the Previous 24 Hours

Scroll right to see more
 ConditionsComfort  
Time TempWeatherWind HumidityBarometerVisibility
8:00 am
Wed, Jan 18
25 °FClear.12 mph80%30.39 "Hg10 mi
7:30 am25 °FClear.12 mph80%30.39 "Hg10 mi
7:00 am25 °FClear.10 mph80%30.36 "Hg10 mi
6:30 am25 °FClear.10 mph80%30.36 "Hg10 mi
6:00 am25 °FClear.12 mph80%30.36 "Hg10 mi
5:30 am27 °FPassing clouds.14 mph74%30.36 "HgN/A
5:00 am27 °FPassing clouds.13 mph80%30.39 "HgN/A
4:30 am27 °FPassing clouds.13 mph80%30.39 "HgN/A
4:00 am27 °FOvercast.13 mph80%30.39 "HgN/A
3:30 am28 °FOvercast.14 mph74%30.39 "HgN/A
3:00 am28 °FOvercast.14 mph69%30.39 "HgN/A
2:30 am28 °FOvercast.15 mph69%30.39 "HgN/A
2:00 am28 °FOvercast.15 mph69%30.42 "HgN/A
1:30 am28 °FOvercast.14 mph69%30.42 "HgN/A
1:00 am28 °FOvercast.16 mph69%30.42 "HgN/A
12:30 am28 °FOvercast.17 mph69%30.42 "HgN/A
12:00 am28 °FPassing clouds.13 mph69%30.42 "HgN/A
11:30 pm
Tue, Jan 17
28 °FPassing clouds.18 mph69%30.42 "HgN/A
11:00 pm30 °FPassing clouds.15 mph69%30.42 "HgN/A
10:30 pm30 °FPassing clouds.12 mph75%30.42 "HgN/A
10:00 pm32 °FClear.12 mph69%30.42 "Hg10 mi
9:30 pm32 °FClear.13 mph69%30.42 "Hg10 mi
9:00 pm32 °FClear.14 mph69%30.42 "Hg10 mi
8:30 pm34 °FClear.17 mph65%30.42 "Hg10 mi
8:00 pm34 °FClear.15 mph65%30.39 "Hg10 mi
7:30 pm34 °FClear.15 mph60%30.39 "Hg10 mi
7:00 pm34 °FClear.15 mph60%30.39 "Hg10 mi
6:30 pm36 °FClear.13 mph56%30.39 "Hg10 mi
6:00 pm36 °FClear.12 mph56%30.39 "Hg10 mi
5:30 pm37 °FSunny.14 mph52%30.39 "Hg10 mi
5:00 pm37 °FSunny.16 mph52%30.39 "Hg10 mi
4:30 pm37 °FSunny.16 mph48%30.39 "Hg10 mi
4:00 pm39 °FPassing clouds.15 mph48%30.39 "HgN/A
3:30 pm39 °FSunny.17 mph45%30.39 "Hg10 mi
3:00 pm37 °FSunny.16 mph48%30.39 "Hg10 mi
2:30 pm37 °FPassing clouds.17 mph52%30.42 "HgN/A
2:00 pm37 °FSunny.16 mph52%30.42 "Hg10 mi
1:30 pm37 °FSunny.17 mph56%30.42 "Hg10 mi
1:00 pm36 °FSunny.15 mph60%30.42 "Hg10 mi
12:30 pm36 °FPassing clouds.16 mph60%30.45 "HgN/A
12:00 pm34 °FSunny.16 mph70%30.45 "Hg10 mi
11:30 am34 °FSunny.15 mph70%30.45 "Hg10 mi
11:00 am32 °FSunny.15 mph80%30.45 "Hg10 mi
10:30 am32 °FSunny.15 mph80%30.45 "Hg10 mi
10:00 am30 °FSunny.13 mph86%30.42 "Hg10 mi
9:30 am30 °FSunny.10 mph86%30.42 "Hg10 mi
9:00 am28 °FSunny.10 mph93%30.42 "Hg10 mi
Weather by CustomWeather, © 2017

See weather overviewHow to use our weather pages